sat.trackr.live / text

‹ back to catalog

STARLINK-30549

NORAD 58030 · 2023-156C

PAYLOAD ACTIVE UNKNOWN

§ Identity

Operator
Country
US
Launch date
2023-10-09
Launch site
AFWTR
Launch vehicle
Mass (kg)
RCS (m²)

Purposes: comms

External: N2YO · Heavens-Above · Gunter

§ Orbital elements

Epoch: 2026-05-25T02:37:51.676032Z

Period
94.11 min
Inclination
53.1606°
Eccentricity
0.0001151
Mean motion
15.30198495 rev/d
Perigee alt
474.4 km
Apogee alt
476.0 km
Semi-major
6,853.4 km
B*
3.7247e-5
RAAN
83.4159°
Arg perigee
77.8085°
Mean anomaly
282.3044°
Rev number
14,796

§ Raw data

STARLINK-305491 58030U 23156C   26145.10962588  .00000744  00000+0  37247-4 0  99912 58030  53.1606  83.4159 0001151  77.8085 282.3044 15.30198495147967

JSON: /api/v1/satellites/58030 · /tle

For live sub-satellite position, see the globe view (requires WebGL).

§ Visibility from observer

Set your observer location to see the next 7 days of passes ≥ 10°. The values pass through the URL so the page stays shareable.

No JS? Fill the form by hand. The geolocation button needs JavaScript.